[[{"header":{"parameterUnit":"m.s-1","parameterCategory":1,"la1":30.2991,"la2":30.254,"lo1":-89.0895,"lo2":-89.0444,"dy":0.0017,"dx":0.0017,"nx":28,"ny":28,"refTime":"2025-05-01T09:00:00:Z","depth":0,"parameterNumber":2,"parameterNumberName":"U-component_of_WINDS"},"data":[0,0,0,0,0,0,0,0,0,0,0,0,0,0,0,0,0,0,0,0,0,0,0,0,0,0,0,0,0,0,0,0,0,0,0,0,0,0,0,0,0,0,0,0,0,0,0,0,0,0,0,0,0,0,0,0,0,0,-1.3951,-1.3952,0,-1.4036,-1.4037,-1.4038,-1.4062,-1.4062,-1.4061,-1.4061,-1.4154,-1.4156,-1.4159,0,0,0,0,0,0,0,0,0,0,0,0,0,-1.3814,-1.3817,-1.3951,-1.3952,-1.3953,-1.4036,-1.4037,-1.4039,-1.4062,-1.4062,-1.4061,-1.406,-1.4153,-1.4156,-1.416,0,0,0,0,0,0,0,0,0,0,0,0,0,-1.3884,-1.3818,-1.3951,-1.3975,-1.3978,-1.4036,-1.4037,-1.4039,-1.4062,-1.4062,-1.4061,-1.406,-1.4151,-1.4156,-1.416,-1.4202,0,0,-1.4174,-1.4176,0,0,0,0,0,0,0,0,-1.388,-1.3889,-1.397,-1.3973,-1.3977,-1.4038,-1.4023,-1.4094,-1.4063,-1.403,-1.4061,-1.406,-1.4116,-1.4123,-1.4141,-1.4207,-1.4211,-1.4174,-1.4177,-1.4179,-1.418,0,0,0,0,0,0,0,-1.3875,-1.3886,-1.3985,-1.3971,-1.3975,-1.3983,-1.3992,-1.4037,-1.4077,-1.4033,-1.4035,-1.4044,-1.4118,-1.4137,-1.4144,-1.4212,-1.4174,-1.4178,-1.4181,-1.4182,-1.4319,-1.432,0,0,0,0,0,0,-1.3866,-1.3882,-1.3982,-1.3987,-1.3925,-1.3986,-1.3996,-1.4019,-1.4076,-1.4084,-1.4045,-1.4045,-1.413,-1.4138,-1.4147,-1.4201,-1.4179,-1.4183,-1.4185,-1.4318,-1.4319,-1.432,0,0,0,0,0,0,-1.3863,-1.3874,-1.3979,-1.3935,-1.3949,-1.3989,-1.4014,-1.4021,-1.404,-1.4085,-1.4093,-1.4057,-1.4129,-1.4141,-1.4189,-1.4205,-1.4185,-1.4189,-1.4317,-1.4318,-1.432,-1.4309,0,0,0,0,0,0,-1.3859,-1.3873,-1.3888,-1.3935,-1.3951,-1.4017,-1.4015,-1.4023,-1.4047,-1.4048,-1.4098,-1.4106,-1.413,-1.4182,-1.4193,-1.421,-1.4192,-1.4316,-1.4318,-1.4319,-1.4308,-1.431,-1.4312,0,0,0,0,0,-1.3854,-1.3882,-1.3888,-1.39,-1.397,-1.4018,-1.4027,-1.4052,-1.4048,-1.4065,-1.4094,-1.4104,-1.4201,-1.4186,-1.4199,-1.4218,-1.4315,-1.4317,-1.4319,-1.4307,-1.431,-1.4311,0,0,0,0,0,0,-1.3838,-1.3889,-1.3896,-1.3941,-1.3974,-1.4021,-1.4043,-1.4054,-1.4091,-1.409,-1.4122,-1.4133,-1.4179,-1.4204,-1.4186,-1.4263,-1.4258,-1.4263,-1.4245,-1.4248,-1.4249,-1.4242,-1.4196,0,0,0,0,0,-1.3839,-1.3871,-1.3915,-1.395,-1.3967,-1.4002,-1.4023,-1.404,-1.4077,-1.4092,-1.4124,-1.4162,-1.4201,-1.4226,-1.4264,-1.4312,-1.4324,-1.4332,-1.4333,-1.4335,-1.4338,-1.4367,-1.4372,-1.4328,-1.4328,-1.4327,0,0,-1.3842,-1.3875,-1.3893,-1.3948,-1.3976,-1.4011,-1.4014,-1.405,-1.4077,-1.4098,-1.4145,-1.417,-1.4214,-1.4262,-1.4285,-1.4284,-1.4354,-1.4337,-1.4338,-1.4341,-1.437,-1.4374,-1.4378,-1.4329,-1.4329,-1.4329,0,0,-1.3867,-1.3894,-1.3926,-1.3954,-1.3996,-1.402,-1.4027,-1.4073,-1.409,-1.4138,-1.4155,-1.4188,-1.4254,-1.4285,-1.4309,-1.4347,-1.4359,-1.4359,-1.4368,-1.4395,-1.4399,-1.4402,-1.4417,-1.4421,-1.4363,-1.4363,-1.4363,0,-1.3866,-1.3917,-1.3942,-1.3978,-1.4002,-1.4022,-1.4056,-1.4083,-1.4136,-1.4153,-1.4151,-1.4235,-1.4266,-1.4323,-1.4332,-1.4351,-1.4362,-1.4353,-1.4396,-1.44,-1.4403,-1.4417,-1.4422,-1.4362,-1.4362,-1.4362,-1.4362,0,-1.3915,-1.3951,-1.3972,-1.4021,-1.4048,-1.4083,-1.4116,-1.4141,-1.4155,-1.418,-1.4229,-1.4267,-1.4313,-1.4328,-1.4343,-1.4388,-1.4386,-1.4389,-1.4385,-1.4407,-1.442,-1.4426,-1.4362,-1.4362,-1.4362,-1.4362,0,0,-1.3931,-1.3994,-1.4001,-1.4024,-1.4073,-1.4102,-1.4139,-1.4183,-1.4204,-1.4241,-1.4274,-1.433,-1.4334,-1.4362,-1.4381,-1.4405,-1.4434,-1.4406,-1.4408,-1.4411,-1.4487,-1.4484,-1.4489,-1.4442,-1.4443,-1.4444,-1.4483,0,-1.3962,-1.4026,-1.405,-1.4104,-1.4138,-1.4158,-1.419,-1.4225,-1.4249,-1.4283,-1.4311,-1.4351,-1.4352,-1.4369,-1.4394,-1.4425,-1.445,-1.4423,-1.4475,-1.4477,-1.4463,-1.4496,-1.4493,-1.4528,-1.4489,-1.449,-1.449,0,-1.4006,-1.4041,-1.4097,-1.4143,-1.4158,-1.4186,-1.423,-1.4261,-1.4302,-1.4318,-1.435,-1.4368,-1.441,-1.4403,-1.4462,-1.4443,-1.4467,-1.4485,-1.4487,-1.4493,-1.4485,-1.4504,-1.454,-1.4545,-1.4499,-1.4498,-1.4498,0,-1.4012,-1.4074,-1.4116,-1.4135,-1.4189,-1.4209,-1.4233,-1.4272,-1.4298,-1.4337,-1.4354,-1.4398,-1.4422,-1.4456,-1.4487,-1.4479,-1.4544,-1.4539,-1.456,-1.4559,-1.4572,-1.4571,-1.4613,-1.4587,-1.4587,-1.4587,-1.4587,0,-1.4044,-1.4078,-1.412,-1.4146,-1.4185,-1.4214,-1.4253,-1.4279,-1.4314,-1.4347,-1.4368,-1.4399,-1.4436,-1.4473,-1.4497,-1.4544,-1.4554,-1.457,-1.4576,-1.4568,-1.4566,-1.4584,-1.4582,-1.4588,-1.4588,-1.4588,-1.4587,0,-1.4057,-1.4087,-1.4134,-1.4181,-1.4194,-1.4221,-1.4262,-1.4289,-1.4315,-1.4356,-1.4368,-1.4409,-1.4453,-1.4486,-1.4544,-1.4561,-1.461,-1.4617,-1.4596,-1.4599,-1.4618,-1.4616,-1.4672,-1.4682,-1.4649,-1.4649,-1.4649,0,-1.4076,-1.4102,-1.4152,-1.4174,-1.4197,-1.4234,-1.4259,-1.429,-1.4316,-1.4365,-1.4387,-1.4432,-1.447,-1.4541,-1.4577,-1.4622,-1.4629,-1.4646,-1.4636,-1.4628,-1.4631,-1.4629,-1.4632,-1.4647,-1.4648,-1.4648,-1.4648,0,-1.4105,-1.4119,-1.4154,-1.4195,-1.4225,-1.4259,-1.4294,-1.4312,-1.4349,-1.4378,-1.4423,-1.4452,-1.4511,-1.4556,-1.4605,-1.4632,-1.4647,-1.4651,-1.4658,-1.465,-1.4637,-1.4645,-1.46,-1.4649,-1.4649,-1.4649,-1.4649,-1.4649,-1.4122,-1.4147,-1.4186,-1.4225,-1.4254,-1.4286,-1.4314,-1.4343,-1.438,-1.4429,-1.4445,-1.4492,-1.4534,-1.4601,-1.4628,-1.4667,-1.4667,-1.4677,-1.468,-1.4682,-1.4682,-1.4631,-1.4676,-1.4676,-1.4676,-1.4676,-1.4676,0,-1.4154,-1.418,-1.4215,-1.4262,-1.4294,-1.4304,-1.4343,-1.4369,-1.4409,-1.4446,-1.4483,-1.4535,-1.458,-1.4619,-1.4666,-1.469,-1.4698,-1.4701,-1.47,-1.4706,-1.4678,-1.4668,-1.4694,-1.4694,-1.4694,-1.4694,-1.4694,-1.4694,-1.4173,-1.4216,-1.4234,-1.4293,-1.4319,-1.4363,-1.4385,-1.4416,-1.4445,-1.4502,-1.4538,-1.4563,-1.4603,-1.4653,-1.4695,-1.4706,-1.4722,-1.4724,-1.4737,-1.471,-1.4708,-1.4706,-1.4696,-1.4727,-1.4727,-1.4761,-1.4761,-1.4762]},{"header":{"parameterUnit":"m.s-1","parameterCategory":1,"la1":30.2991,"la2":30.254,"lo1":-89.0895,"lo2":-89.0444,"dy":0.0017,"dx":0.0017,"nx":28,"ny":28,"refTime":"2025-05-01T09:00:00:Z","depth":0,"parameterNumber":3,"parameterNumberName":"V-component_of_WINDS"},"data":[0,0,0,0,0,0,0,0,0,0,0,0,0,0,0,0,0,0,0,0,0,0,0,0,0,0,0,0,0,0,0,0,0,0,0,0,0,0,0,0,0,0,0,0,0,0,0,0,0,0,0,0,0,0,0,0,0,0,3.0383,3.0383,0,3.038,3.038,3.038,3.0351,3.035,3.0349,3.0349,3.0346,3.0347,3.0347,0,0,0,0,0,0,0,0,0,0,0,0,0,3.0364,3.0364,3.0383,3.0383,3.0383,3.038,3.038,3.038,3.0351,3.035,3.0349,3.0348,3.0346,3.0347,3.0347,0,0,0,0,0,0,0,0,0,0,0,0,0,3.0368,3.0365,3.0383,3.0368,3.0367,3.038,3.038,3.038,3.0351,3.035,3.0349,3.0348,3.0346,3.0347,3.0348,3.0375,0,0,3.035,3.0351,0,0,0,0,0,0,0,0,3.0368,3.0369,3.037,3.0369,3.0368,3.0365,3.0372,3.0378,3.0351,3.0357,3.0349,3.0347,3.0353,3.0353,3.0355,3.0375,3.0375,3.035,3.0351,3.0351,3.0352,0,0,0,0,0,0,0,3.0367,3.0369,3.0382,3.037,3.0369,3.0362,3.0361,3.0373,3.0361,3.0357,3.0354,3.0354,3.0352,3.0355,3.0355,3.0375,3.035,3.0351,3.0352,3.0352,3.0417,3.0418,0,0,0,0,0,0,3.0369,3.0368,3.0382,3.0382,3.0365,3.0363,3.0362,3.0367,3.0361,3.0359,3.0355,3.0353,3.0354,3.0354,3.0355,3.0386,3.0351,3.0352,3.0353,3.0415,3.0417,3.0418,0,0,0,0,0,0,3.0369,3.0371,3.0382,3.0375,3.0376,3.0364,3.037,3.0367,3.0369,3.036,3.0358,3.036,3.0353,3.0354,3.037,3.0386,3.0353,3.0353,3.0414,3.0416,3.0417,3.0449,0,0,0,0,0,0,3.0368,3.0371,3.0381,3.0375,3.0376,3.0397,3.0371,3.0368,3.0371,3.0368,3.0364,3.0362,3.0352,3.0369,3.0371,3.0386,3.0354,3.0413,3.0415,3.0417,3.0447,3.0452,3.0456,0,0,0,0,0,3.0368,3.039,3.0382,3.0383,3.0389,3.0398,3.0399,3.0387,3.0373,3.0383,3.0377,3.0362,3.0384,3.0371,3.0373,3.0389,3.0412,3.0414,3.0417,3.0445,3.0451,3.0456,0,0,0,0,0,0,3.0399,3.0389,3.038,3.0401,3.0401,3.0393,3.0406,3.0394,3.0398,3.0395,3.0379,3.0379,3.0397,3.0395,3.0381,3.0415,3.0395,3.0398,3.0416,3.0422,3.0426,3.0426,3.0355,0,0,0,0,0,3.0408,3.0417,3.0408,3.0428,3.0428,3.0417,3.0421,3.0411,3.0411,3.041,3.0406,3.0406,3.0412,3.0417,3.0423,3.0447,3.0445,3.0459,3.0463,3.0467,3.047,3.0482,3.0487,3.0427,3.0427,3.0427,0,0,3.0427,3.0423,3.0429,3.0434,3.0432,3.0441,3.0417,3.0428,3.0435,3.0412,3.0427,3.0424,3.0423,3.0443,3.0452,3.0441,3.0486,3.0471,3.0474,3.0474,3.0485,3.0491,3.0496,3.0428,3.0428,3.0428,0,0,3.0466,3.0465,3.048,3.0479,3.0478,3.047,3.0474,3.0469,3.0466,3.0481,3.0464,3.0472,3.0484,3.0483,3.0485,3.0524,3.0511,3.0527,3.0551,3.0562,3.0567,3.0571,3.0584,3.0589,3.0529,3.053,3.053,0,3.049,3.0503,3.049,3.0502,3.0504,3.0484,3.0499,3.0499,3.05,3.0502,3.0491,3.0505,3.0503,3.0522,3.0532,3.0534,3.0538,3.0526,3.0568,3.0572,3.0575,3.0588,3.0593,3.0531,3.0531,3.0531,3.0531,0,3.0532,3.0542,3.0555,3.0555,3.0559,3.0573,3.0561,3.0567,3.0557,3.0551,3.0566,3.0563,3.0567,3.0572,3.0563,3.059,3.0583,3.057,3.055,3.0583,3.0594,3.0599,3.0534,3.0533,3.0533,3.0532,0,0,3.059,3.0583,3.0588,3.0588,3.0584,3.0591,3.0604,3.0608,3.0613,3.0614,3.0624,3.0635,3.0622,3.0624,3.0615,3.0625,3.0655,3.061,3.061,3.0618,3.0684,3.0693,3.0699,3.0647,3.0648,3.0648,3.0684,0,3.0627,3.0648,3.0637,3.0659,3.0667,3.0648,3.066,3.0659,3.0654,3.066,3.0654,3.0661,3.0645,3.0646,3.0655,3.065,3.0668,3.0647,3.0655,3.0656,3.0655,3.0705,3.0714,3.0748,3.0688,3.0689,3.0689,0,3.0673,3.0676,3.0699,3.0693,3.0696,3.0706,3.0709,3.0715,3.0714,3.0709,3.0711,3.0699,3.0711,3.0692,3.0708,3.0694,3.0697,3.0695,3.0696,3.0695,3.0674,3.0704,3.0758,3.0763,3.0696,3.0696,3.0695,0,3.0712,3.0721,3.0736,3.0736,3.0731,3.0738,3.0736,3.0734,3.0737,3.0739,3.0741,3.0745,3.0747,3.075,3.074,3.0727,3.0757,3.0737,3.0753,3.0754,3.076,3.0759,3.0813,3.0764,3.0764,3.0764,3.0763,0,3.0753,3.0768,3.0753,3.0762,3.0778,3.0764,3.078,3.0777,3.0775,3.0782,3.0767,3.0775,3.0761,3.0768,3.076,3.0774,3.0776,3.0772,3.0769,3.0772,3.0773,3.0773,3.077,3.0765,3.0765,3.0764,3.0764,0,3.0799,3.0789,3.0804,3.0797,3.0796,3.0808,3.0802,3.081,3.0804,3.0814,3.0816,3.0806,3.0813,3.0803,3.0809,3.0804,3.0823,3.0818,3.0823,3.0821,3.0837,3.0835,3.0893,3.0899,3.0846,3.0847,3.0847,0,3.0826,3.0836,3.0831,3.0835,3.0833,3.084,3.0843,3.083,3.0834,3.0833,3.0841,3.0847,3.085,3.0862,3.0855,3.086,3.0854,3.0873,3.0854,3.0857,3.0852,3.0851,3.0852,3.0877,3.0878,3.0878,3.0879,0,3.0874,3.0868,3.0873,3.0876,3.0879,3.0881,3.0882,3.0886,3.0873,3.0878,3.0884,3.0887,3.0892,3.0898,3.09,3.0898,3.0886,3.0885,3.0889,3.0891,3.0894,3.0891,3.0832,3.0883,3.0883,3.0883,3.0882,3.0882,3.091,3.0918,3.0915,3.092,3.092,3.092,3.0927,3.0922,3.0927,3.093,3.0923,3.0931,3.0929,3.0931,3.0931,3.0937,3.0928,3.0934,3.0935,3.0936,3.0938,3.0894,3.0937,3.0937,3.0937,3.0937,3.0937,0,3.0956,3.0953,3.0958,3.0959,3.0963,3.0952,3.0952,3.0956,3.0963,3.0962,3.0966,3.0973,3.0978,3.0972,3.0976,3.0982,3.0977,3.0983,3.0982,3.0982,3.0946,3.0942,3.0988,3.0988,3.0988,3.0988,3.0988,3.0988,3.0981,3.0994,3.0988,3.1,3.0997,3.1005,3.1006,3.1006,3.1005,3.1014,3.1018,3.1014,3.1011,3.1014,3.1018,3.1016,3.1018,3.1027,3.1023,3.099,3.0984,3.098,3.0976,3.1028,3.1028,3.1058,3.1058,3.1058]}]]